Regional Weather Roundup
Issued by NWS

Home | Current Version | Previous Version | Graphics & Text | Print | Product List | Glossary On
Versions: 1 2 3 4 5 6 7 8 9 10 11 12 13 14 15 16 17 18 19 20 21 22 23 24 25 26 27 28 29 30 31 32 33 34 35 36 37 38 39 40 41 42 43 44 45 46 47 48 49 50
000
ASUS43 KMKX 232300
RWRWI

WISCONSIN REGIONAL WEATHER ROUNDUP
NATIONAL WEATHER SERVICE MILWAUKEE/SULLIVAN WI
500 PM CST THU NOV 23 2017

NOTE: "FAIR" INDICATES FEW OR NO CLOUDS BELOW 12,000 FEET WITH NO
SIGNIFICANT WEATHER AND/OR OBSTRUCTIONS TO VISIBILITY.

WIZ001-002-006>008-014>016-023>028-240000-
NORTHWEST WISCONSIN

CITY           SKY/WX    TMP DP  RH WIND       PRES   REMARKS
SUPERIOR ARPT  CLOUDY    38  25  58 SW5       29.74F WCI  35
ASHLAND        CLOUDY    37  22  54 S3        29.78S
HAYWARD        CLOUDY    39  22  50 S8        29.76F WCI  33
SIREN          CLOUDY    39  24  54 S6        29.78F WCI  35
CUMBERLAND     PTCLDY    34  23  64 S6        29.78F WCI  29
RICE LAKE      CLEAR     38  23  54 SE5       29.81F WCI  34
CHETEK         CLEAR     36  22  57 SE3       29.82S
LADYSMITH      CLEAR     35  23  62 SW6       29.81R WCI  30
EAU CLAIRE     NOT AVBL
MENOMONIE      CLEAR     34  21  59 SE5       29.83S WCI  30
NEW RICHMOND   MOCLDY    39  22  50 S6        29.81F
OSCEOLA        CLOUDY    40  24  54 S7        29.82F
$$

WIZ003>005-009-010-017-018-240000-
NORTH CENTRAL WISCONSIN

CITY           SKY/WX    TMP DP  RH WIND       PRES   REMARKS
MANITOWISH WTR CLEAR     33  23  66 S3        29.76F
ARBOR VITAE    CLEAR     37  26  64 S3        29.77F
WOODRUFF       CLEAR     37  26  64 S3        29.77F
RHINELANDER    CLEAR     35  23  61 S3        29.78F
EAGLE RIVER    CLEAR     31  21  65 CALM      29.77S
LAND O LAKES   CLEAR     32  22  66 CALM      29.79R
PHILLIPS       CLEAR     33  23  66 CALM      29.77F
TOMAHAWK       CLEAR     33  22  63 CALM      29.79F
MEDFORD        CLEAR     32  21  63 S5        29.79F WCI  28
MERRILL        CLEAR     36  22  58 S3        29.81F
$$

WIZ029-030-035-036-043>047-240000-
CENTRAL WISCONSIN

CITY           SKY/WX    TMP DP  RH WIND       PRES   REMARKS
WAUSAU         CLEAR     35  22  58 S3        29.81F
MOSINEE        PTCLDY    32  21  64 S5        29.83F WCI  27
MARSHFIELD     CLOUDY    34  21  59 S7        29.80F WCI  28
STEVENS POINT  CLEAR     35  19  54 CALM      29.86R
WAUPACA        CLEAR     38  21  49 SW3       29.86S
WAUTOMA        CLEAR     33  21  61 SW5       29.87S WCI  29
WISC RAPIDS    CLOUDY    34  21  59 S5        29.86S WCI  30
CAMP DOUGLAS   CLEAR     33  21  61 CALM      29.85F
$$

WIZ011>013-019>022-031-037>040-048>050-240000-
NORTHEAST WISCONSIN

CITY           SKY/WX    TMP DP  RH WIND       PRES   REMARKS
ANTIGO         CLEAR     32  24  70 SW6       29.82S WCI  27
SHAWANO        CLEAR     38  21  51 CALM      29.85R
OCONTO         CLEAR     36  20  53 CALM      29.85F
STURGEON BAY   CLEAR     35  21  56 S5        29.86F WCI  31
GREEN BAY      CLEAR     37  24  59 S5        29.86F WCI  33
MANITOWOC      CLEAR     37  21  52 S7        29.88F WCI  32
APPLETON       PTCLDY    34  18  51 SW5       29.85F WCI  30
CLINTONVILLE   CLEAR     36  21  55 SW7       29.85F WCI  30
OSHKOSH        CLEAR     33  23  66 S6        29.86F WCI  28
$$

WIZ032>034-041-042-053>061-240000-
SOUTHWEST WISCONSIN

CITY           SKY/WX    TMP DP  RH WIND       PRES   REMARKS
LA CROSSE      CLEAR     40  23  50 S5        29.85F
SPARTA         CLEAR     38  23  55 CALM      29.87F
VIROQUA        CLEAR     38  25  59 S5        29.85F WCI  34
BOSCOBEL       CLEAR     36  23  59 CALM      29.88F
PRAIRIE DU CHI CLEAR     44  22  41 CALM      29.88F
PLATTEVILLE    CLEAR     40  26  56 SW3       29.90F
$$

WIZ056-057-062-063-064-067-068-240000-
SOUTH CENTRAL WISCONSIN

CITY           SKY/WX    TMP DP  RH WIND       PRES   REMARKS
REEDSBURG      CLEAR     40  23  50 S3        29.87S
BARABOO/DELLS  CLEAR     39  21  48 CALM      29.87S
LONE ROCK      NOT AVBL
MINERAL POINT  CLEAR     43  27  52 SW5       29.89S
MADISON        CLEAR     38  22  52 CALM      29.88F
MIDDLETON      CLEAR     40  25  54 CALM      29.89S
WATERTOWN      CLEAR     39  23  53 CALM      29.89S
MONROE         CLEAR     41  23  48 W7        29.90R
JANESVILLE     CLEAR     41  25  52 W3        29.91R
$$

WIZ051-052-058>065-066-070>072-240000-
SOUTHEAST WISCONSIN

CITY           SKY/WX    TMP DP  RH WIND       PRES   REMARKS
MILWAUKEE      PTCLDY    42  24  49 SW6       29.91S
WAUKESHA       CLEAR     36  21  55 W5        29.91S WCI  32
MILWAUKEE/TIMM CLEAR     39  19  45 W3        29.92R
RACINE         CLEAR     41  24  51 CALM      29.93R
BURLINGTON     CLEAR     41  29  62 CALM      29.91S
KENOSHA        CLEAR     36  23  59 SW3       29.91S
FOND DU LAC    CLEAR     33  21  61 S7        29.87F WCI  27
SHEBOYGAN      CLEAR     35  23  61 SW5       29.90R WCI  31
WEST BEND      CLEAR     37  21  52 CALM      29.89S
JUNEAU         CLEAR     36  24  62 CALM      29.90S
$$

LSZ147-162-240000-
LAKE SUPERIOR

STATION/POSITION TIME  TEMP    WIND        PRES    WAVE
                       AIR SEA DIR/SP/G            HT/PER
                 (UTC) (F)     (DEG/KT/KT) (MB)    (FT/S)
DEVILS ISLAND    2200   36     250/  6/  8 1009.1F
SAXON HARBOR     2240   32     190/  2/  3 1008.1S
$$

LMZ867-665-643>646-240000-
LAKE MICHIGAN

STATION/POSITION TIME  TEMP    WIND        PRES    WAVE
                       AIR SEA DIR/SP/G            HT/PER
                 (UTC) (F)     (DEG/KT/KT) (MB)    (FT/S)
N MID LAKE BUOY  2150   38 47  240/ 12/ 14 1012.4R   3/ 6
NORTHPORT PIER   2240   35     200/  2/  5 1010.8F
KEWAUNEE LAKESHO 2230   39     200/  4/  5 1010.9F
SHEBOYGAN LAKESH 2200   42     250/  6/  7 1012.5R
PORT WASHINGTON  2230   42     290/  2/  4 1013.9R
MILWAUKEE LAKESH 2230   43     280/  4/  4   N/A
S MID LAKE BUOY  2150   42 47  250/ 10/ 12 1013.4F   3/ 5
KENOSHA   LAKESH 2200   44     260/  6/ 10 1012.9
$$

TC  - TEMPERATURE IN CELSIUS
VSB - VISIBILITY IN STATUTE MILES
WCI - WIND CHILL INDEX
HX  - HEAT INDEX





USA.gov is the U.S. government's official web portal to all federal, state and local government web resources and services.